Year,Month,Day,Hour,Minute,Value (Times are PST for temperature in C)
2010,03,20,00,00,5.30
2010,03,20,00,01,5.30
2010,03,20,00,02,5.30
2010,03,20,00,03,5.30
2010,03,20,00,04,5.30
2010,03,20,00,05,5.30
2010,03,20,00,06,5.30
2010,03,20,00,07,5.40
2010,03,20,00,08,5.50
2010,03,20,00,09,5.50
2010,03,20,00,10,5.50
2010,03,20,00,11,5.50
2010,03,20,00,12,5.60
2010,03,20,00,13,5.60
2010,03,20,00,14,5.60
2010,03,20,00,15,5.60
2010,03,20,00,16,5.60
2010,03,20,00,17,5.70
2010,03,20,00,18,5.70
2010,03,20,00,19,5.70
2010,03,20,00,20,5.70
2010,03,20,00,21,5.70
2010,03,20,00,22,5.70
2010,03,20,00,23,5.70
2010,03,20,00,24,5.70
2010,03,20,00,25,5.70
2010,03,20,00,26,5.70
2010,03,20,00,27,5.70
2010,03,20,00,28,5.80
2010,03,20,00,29,5.80
2010,03,20,00,30,5.80
2010,03,20,00,31,5.80
2010,03,20,00,32,5.80
2010,03,20,00,33,5.80
2010,03,20,00,34,5.70
2010,03,20,00,35,5.70
2010,03,20,00,36,5.70
2010,03,20,00,37,5.70
2010,03,20,00,38,5.70
2010,03,20,00,39,5.70
2010,03,20,00,40,5.80
2010,03,20,00,41,5.80
2010,03,20,00,42,5.80
2010,03,20,00,43,5.80
2010,03,20,00,44,5.80
2010,03,20,00,45,5.80
2010,03,20,00,46,5.80
2010,03,20,00,47,5.70
2010,03,20,00,48,5.80
2010,03,20,00,49,5.90
2010,03,20,00,50,5.90
2010,03,20,00,51,5.90
2010,03,20,00,52,5.80
2010,03,20,00,53,5.80
2010,03,20,00,54,5.80
2010,03,20,00,55,5.80
2010,03,20,00,56,5.70
2010,03,20,00,57,5.70
2010,03,20,00,58,5.70
2010,03,20,00,59,5.70
2010,03,20,01,00,5.80
2010,03,20,01,01,5.80
2010,03,20,01,02,5.80
2010,03,20,01,03,5.80
2010,03,20,01,04,5.80
2010,03,20,01,05,5.80
2010,03,20,01,06,5.80
2010,03,20,01,07,5.80
2010,03,20,01,08,5.80
2010,03,20,01,09,5.80
2010,03,20,01,10,5.80
2010,03,20,01,11,5.80
2010,03,20,01,12,5.80
2010,03,20,01,13,5.80
2010,03,20,01,14,5.70
2010,03,20,01,15,5.70
2010,03,20,01,16,5.70
2010,03,20,01,17,5.70
2010,03,20,01,18,5.70
2010,03,20,01,19,5.70
2010,03,20,01,20,5.60
2010,03,20,01,21,5.60
2010,03,20,01,22,5.50
2010,03,20,01,23,5.50
2010,03,20,01,24,5.50
2010,03,20,01,25,5.50
2010,03,20,01,26,5.50
2010,03,20,01,27,5.50
2010,03,20,01,28,5.40
2010,03,20,01,29,5.30
2010,03,20,01,30,5.30
2010,03,20,01,31,5.20
2010,03,20,01,32,5.10
2010,03,20,01,33,5.10
2010,03,20,01,34,5.00
2010,03,20,01,35,4.90
2010,03,20,01,36,4.90
2010,03,20,01,37,4.80
2010,03,20,01,38,4.80
2010,03,20,01,39,4.70
2010,03,20,01,40,4.70
2010,03,20,01,41,4.70
2010,03,20,01,42,4.60
2010,03,20,01,43,4.60
2010,03,20,01,44,4.60
2010,03,20,01,45,4.50
2010,03,20,01,46,4.50
2010,03,20,01,47,4.40
2010,03,20,01,48,4.30
2010,03,20,01,49,4.30
2010,03,20,01,50,4.20
2010,03,20,01,51,4.20
2010,03,20,01,52,4.20
2010,03,20,01,53,4.10
2010,03,20,01,54,4.00
2010,03,20,01,55,4.00
2010,03,20,01,56,3.90
2010,03,20,01,57,3.90
2010,03,20,01,58,3.80
2010,03,20,01,59,3.80
2010,03,20,02,00,3.80
2010,03,20,02,01,3.80
2010,03,20,02,02,3.80
2010,03,20,02,03,3.80
2010,03,20,02,04,3.80
2010,03,20,02,05,3.80
2010,03,20,02,06,3.80
2010,03,20,02,07,3.80
2010,03,20,02,08,3.80
2010,03,20,02,09,3.80
2010,03,20,02,10,3.70
2010,03,20,02,11,3.70
2010,03,20,02,12,3.60
2010,03,20,02,13,3.60
2010,03,20,02,14,3.60
2010,03,20,02,15,3.60
2010,03,20,02,16,3.50
2010,03,20,02,17,3.50
2010,03,20,02,18,3.50
2010,03,20,02,19,3.50
2010,03,20,02,20,3.50
2010,03,20,02,21,3.40
2010,03,20,02,22,3.40
2010,03,20,02,23,3.40
2010,03,20,02,24,3.40
2010,03,20,02,25,3.40
2010,03,20,02,26,3.40
2010,03,20,02,27,3.50
2010,03,20,02,28,3.60
2010,03,20,02,29,3.60
2010,03,20,02,30,3.70
2010,03,20,02,31,3.80
2010,03,20,02,32,3.90
2010,03,20,02,33,4.00
2010,03,20,02,34,4.10
2010,03,20,02,35,4.20
2010,03,20,02,36,4.30
2010,03,20,02,37,4.40
2010,03,20,02,38,4.50
2010,03,20,02,39,4.60
2010,03,20,02,40,4.60
2010,03,20,02,41,4.70
2010,03,20,02,42,4.70
2010,03,20,02,43,4.80
2010,03,20,02,44,4.80
2010,03,20,02,45,4.90
2010,03,20,02,46,4.90
2010,03,20,02,47,4.90
2010,03,20,02,48,4.90
2010,03,20,02,49,5.10
2010,03,20,02,50,5.10
2010,03,20,02,51,5.10
2010,03,20,02,52,5.20
2010,03,20,02,53,5.20
2010,03,20,02,54,5.30
2010,03,20,02,55,5.30
2010,03,20,02,56,5.40
2010,03,20,02,57,5.50
2010,03,20,02,58,5.50
2010,03,20,02,59,5.50
2010,03,20,03,00,5.50
2010,03,20,03,01,5.60
2010,03,20,03,02,5.60
2010,03,20,03,03,5.60
2010,03,20,03,04,5.60
2010,03,20,03,05,5.70
2010,03,20,03,06,5.70
2010,03,20,03,07,5.70
2010,03,20,03,08,5.60
2010,03,20,03,09,5.60
2010,03,20,03,10,5.60
2010,03,20,03,11,5.60
2010,03,20,03,12,5.70
2010,03,20,03,13,5.70
2010,03,20,03,14,5.70
2010,03,20,03,15,5.80
2010,03,20,03,16,5.90
2010,03,20,03,17,6.00
2010,03,20,03,18,6.00
2010,03,20,03,19,6.10
2010,03,20,03,20,6.10
2010,03,20,03,21,6.10
2010,03,20,03,22,6.10
2010,03,20,03,23,6.10
2010,03,20,03,24,6.00
2010,03,20,03,25,6.00
2010,03,20,03,26,5.90
2010,03,20,03,27,5.70
2010,03,20,03,28,5.60
2010,03,20,03,29,5.50
2010,03,20,03,30,5.40
2010,03,20,03,31,5.30
2010,03,20,03,32,5.20
2010,03,20,03,33,5.10
2010,03,20,03,34,5.10
2010,03,20,03,35,5.10
2010,03,20,03,36,5.10
2010,03,20,03,37,5.10
2010,03,20,03,38,5.10
2010,03,20,03,39,5.10
2010,03,20,03,40,5.10
2010,03,20,03,41,5.10
2010,03,20,03,42,5.20
2010,03,20,03,43,5.20
2010,03,20,03,44,5.20
2010,03,20,03,45,5.30
2010,03,20,03,46,5.30
2010,03,20,03,47,5.30
2010,03,20,03,48,5.30
2010,03,20,03,49,5.30
2010,03,20,03,50,5.30
2010,03,20,03,51,5.20
2010,03,20,03,52,5.10
2010,03,20,03,53,5.10
2010,03,20,03,54,5.10
2010,03,20,03,55,5.10
2010,03,20,03,56,5.10
2010,03,20,03,57,5.10
2010,03,20,03,58,5.10
2010,03,20,03,59,5.10
2010,03,20,04,00,5.10
2010,03,20,04,01,5.10
2010,03,20,04,02,5.10
2010,03,20,04,03,5.10
2010,03,20,04,04,5.10
2010,03,20,04,05,5.10
2010,03,20,04,06,5.00
2010,03,20,04,07,4.90
2010,03,20,04,08,4.90
2010,03,20,04,09,5.00
2010,03,20,04,10,5.10
2010,03,20,04,11,5.10
2010,03,20,04,12,5.10
2010,03,20,04,13,5.10
2010,03,20,04,14,5.10
2010,03,20,04,15,5.10
2010,03,20,04,16,5.10
2010,03,20,04,17,5.10
2010,03,20,04,18,5.10
2010,03,20,04,19,5.10
2010,03,20,04,20,5.10
2010,03,20,04,21,5.10
2010,03,20,04,22,5.10
2010,03,20,04,23,5.20
2010,03,20,04,24,5.20
2010,03,20,04,25,5.20
2010,03,20,04,26,5.20
2010,03,20,04,27,5.20
2010,03,20,04,28,5.20
2010,03,20,04,29,5.20
2010,03,20,04,30,5.20
2010,03,20,04,31,5.30
2010,03,20,04,32,5.30
2010,03,20,04,33,5.30
2010,03,20,04,34,5.40
2010,03,20,04,35,5.40
2010,03,20,04,36,5.40
2010,03,20,04,37,5.50
2010,03,20,04,38,5.50
2010,03,20,04,39,5.60
2010,03,20,04,40,5.60
2010,03,20,04,41,5.70
2010,03,20,04,42,5.80
2010,03,20,04,43,5.90
2010,03,20,04,44,6.00
2010,03,20,04,45,6.10
2010,03,20,04,46,6.10
2010,03,20,04,47,6.20
2010,03,20,04,48,6.20
2010,03,20,04,49,6.20
2010,03,20,04,50,6.20
2010,03,20,04,51,6.20
2010,03,20,04,52,6.30
2010,03,20,04,53,6.30
2010,03,20,04,54,6.30
2010,03,20,04,55,6.30
2010,03,20,04,56,6.30
2010,03,20,04,57,6.40
2010,03,20,04,58,6.40
2010,03,20,04,59,6.40
2010,03,20,05,00,6.40
2010,03,20,05,01,6.40
2010,03,20,05,02,6.40
2010,03,20,05,03,6.40
2010,03,20,05,04,6.40
2010,03,20,05,05,6.40
2010,03,20,05,06,6.30
2010,03,20,05,07,6.30
2010,03,20,05,08,6.30
2010,03,20,05,09,6.30
2010,03,20,05,10,6.20
2010,03,20,05,11,6.20
2010,03,20,05,12,6.20
2010,03,20,05,13,6.20
2010,03,20,05,14,6.20
2010,03,20,05,15,6.20
2010,03,20,05,16,6.20
2010,03,20,05,17,6.20
2010,03,20,05,18,6.30
2010,03,20,05,19,6.30
2010,03,20,05,20,6.30
2010,03,20,05,21,6.40
2010,03,20,05,22,6.40
2010,03,20,05,23,6.40
2010,03,20,05,24,6.40
2010,03,20,05,25,6.40
2010,03,20,05,26,6.40
2010,03,20,05,27,6.40
2010,03,20,05,28,6.40
2010,03,20,05,29,6.40
2010,03,20,05,30,6.60
2010,03,20,05,31,6.60
2010,03,20,05,32,6.60
2010,03,20,05,33,6.60
2010,03,20,05,34,6.70
2010,03,20,05,35,6.80
2010,03,20,05,36,6.80
2010,03,20,05,37,6.90
2010,03,20,05,38,7.00
2010,03,20,05,39,7.00
2010,03,20,05,40,7.10
2010,03,20,05,41,7.10
2010,03,20,05,42,7.10
2010,03,20,05,43,7.20
2010,03,20,05,44,7.30
2010,03,20,05,45,7.30
2010,03,20,05,46,7.30
2010,03,20,05,47,7.30
2010,03,20,05,48,7.40
2010,03,20,05,49,7.40
2010,03,20,05,50,7.40
2010,03,20,05,51,7.40
2010,03,20,05,52,7.30
2010,03,20,05,53,7.30
2010,03,20,05,54,7.40
2010,03,20,05,55,7.30
2010,03,20,05,56,7.30
2010,03,20,05,57,7.30
2010,03,20,05,58,7.30
2010,03,20,05,59,7.30
2010,03,20,06,00,7.30
2010,03,20,06,01,7.30
2010,03,20,06,02,7.30
2010,03,20,06,03,7.30
2010,03,20,06,04,7.40
2010,03,20,06,05,7.40
2010,03,20,06,06,7.40
2010,03,20,06,07,7.40
2010,03,20,06,08,7.40
2010,03,20,06,09,7.40
2010,03,20,06,10,7.40
2010,03,20,06,11,7.40
2010,03,20,06,12,7.50
2010,03,20,06,13,7.50
2010,03,20,06,14,7.50
2010,03,20,06,15,7.50
2010,03,20,06,16,7.50
2010,03,20,06,17,7.50
2010,03,20,06,18,7.60
2010,03,20,06,19,7.60
2010,03,20,06,20,7.60
2010,03,20,06,21,7.60
2010,03,20,06,22,7.60
2010,03,20,06,23,7.50
2010,03,20,06,24,7.50
2010,03,20,06,25,7.50
2010,03,20,06,26,7.50
2010,03,20,06,27,7.40
2010,03,20,06,28,7.40
2010,03,20,06,29,7.40
2010,03,20,06,30,7.40
2010,03,20,06,31,7.30
2010,03,20,06,32,7.30
2010,03,20,06,33,7.30
2010,03,20,06,34,7.30
2010,03,20,06,35,7.40
2010,03,20,06,36,7.50
2010,03,20,06,37,7.50
2010,03,20,06,38,7.50
2010,03,20,06,39,7.50
2010,03,20,06,40,7.60
2010,03,20,06,41,7.60
2010,03,20,06,42,7.60
2010,03,20,06,43,7.60
2010,03,20,06,44,7.60
2010,03,20,06,45,7.60
2010,03,20,06,46,7.60
2010,03,20,06,47,7.70
2010,03,20,06,48,7.70
2010,03,20,06,49,7.70
2010,03,20,06,50,7.70
2010,03,20,06,51,7.70
2010,03,20,06,52,7.70
2010,03,20,06,53,7.70
2010,03,20,06,54,7.70
2010,03,20,06,55,7.80
2010,03,20,06,56,7.80
2010,03,20,06,57,7.80
2010,03,20,06,58,7.70
2010,03,20,06,59,7.70
2010,03,20,07,00,7.70
2010,03,20,07,01,7.70
2010,03,20,07,02,7.70
2010,03,20,07,03,7.70
2010,03,20,07,04,7.70
2010,03,20,07,05,7.70
2010,03,20,07,06,7.70
2010,03,20,07,07,7.80
2010,03,20,07,08,7.80
2010,03,20,07,09,7.80
2010,03,20,07,10,7.80
2010,03,20,07,11,7.80
2010,03,20,07,12,7.70
2010,03,20,07,13,7.70
2010,03,20,07,14,7.70
2010,03,20,07,15,7.60
2010,03,20,07,16,7.60
2010,03,20,07,17,7.70
2010,03,20,07,18,7.70
2010,03,20,07,19,7.70
2010,03,20,07,20,7.70
2010,03,20,07,21,7.70
2010,03,20,07,22,7.70
2010,03,20,07,23,7.70
2010,03,20,07,24,7.70
2010,03,20,07,25,7.70
2010,03,20,07,26,7.70
2010,03,20,07,27,7.70
2010,03,20,07,28,7.70
2010,03,20,07,29,7.70
2010,03,20,07,30,7.70
2010,03,20,07,31,7.70
2010,03,20,07,32,7.60
2010,03,20,07,33,7.50
2010,03,20,07,34,7.50
2010,03,20,07,35,7.50
2010,03,20,07,36,7.40
2010,03,20,07,37,7.30
2010,03,20,07,38,7.30
2010,03,20,07,39,7.40
2010,03,20,07,40,7.40
2010,03,20,07,41,7.50
2010,03,20,07,42,7.50
2010,03,20,07,43,7.50
2010,03,20,07,44,7.50
2010,03,20,07,45,7.50
2010,03,20,07,46,7.50
2010,03,20,07,47,7.50
2010,03,20,07,48,7.60
2010,03,20,07,49,7.60
2010,03,20,07,50,7.70
2010,03,20,07,51,7.80
2010,03,20,07,52,7.80
2010,03,20,07,53,7.80
2010,03,20,07,54,7.90
2010,03,20,07,55,7.90
2010,03,20,07,56,8.00
2010,03,20,07,57,8.00
2010,03,20,07,58,8.00
2010,03,20,07,59,8.00
2010,03,20,08,00,8.00
2010,03,20,08,01,8.00
2010,03,20,08,02,8.00
2010,03,20,08,03,7.90
2010,03,20,08,04,7.90
2010,03,20,08,05,7.90
2010,03,20,08,06,7.90
2010,03,20,08,07,7.90
2010,03,20,08,08,7.90
2010,03,20,08,09,7.90
2010,03,20,08,10,7.90
2010,03,20,08,11,7.90
2010,03,20,08,12,7.90
2010,03,20,08,13,7.90
2010,03,20,08,14,7.90
2010,03,20,08,15,8.00
2010,03,20,08,16,8.00
2010,03,20,08,17,8.10
2010,03,20,08,18,8.20
2010,03,20,08,19,8.20
2010,03,20,08,20,8.20
2010,03,20,08,21,8.30
2010,03,20,08,22,8.30
2010,03,20,08,23,8.40
2010,03,20,08,24,8.40
2010,03,20,08,25,8.50
2010,03,20,08,26,8.50
2010,03,20,08,27,8.50
2010,03,20,08,28,8.60
2010,03,20,08,29,8.60
2010,03,20,08,30,8.70
2010,03,20,08,31,8.70
2010,03,20,08,32,8.70
2010,03,20,08,33,8.70
2010,03,20,08,34,8.80
2010,03,20,08,35,8.80
2010,03,20,08,36,8.90
2010,03,20,08,37,8.90
2010,03,20,08,38,9.00
2010,03,20,08,39,9.00
2010,03,20,08,40,9.10
2010,03,20,08,41,9.20
2010,03,20,08,42,9.20
2010,03,20,08,43,9.20
2010,03,20,08,44,9.20
2010,03,20,08,45,9.30
2010,03,20,08,46,9.30
2010,03,20,08,47,9.30
2010,03,20,08,48,9.40
2010,03,20,08,49,9.40
2010,03,20,08,50,9.40
2010,03,20,08,51,9.50
2010,03,20,08,52,9.50
2010,03,20,08,53,9.50
2010,03,20,08,54,9.60
2010,03,20,08,55,9.60
2010,03,20,08,56,9.60
2010,03,20,08,57,9.60
2010,03,20,08,58,9.60
2010,03,20,08,59,9.60
2010,03,20,09,00,9.70
2010,03,20,09,01,9.70
2010,03,20,09,02,9.70
2010,03,20,09,03,9.70
2010,03,20,09,04,9.80
2010,03,20,09,05,9.80
2010,03,20,09,06,9.80
2010,03,20,09,07,9.90
2010,03,20,09,08,9.90
2010,03,20,09,09,9.90
2010,03,20,09,10,10.00
2010,03,20,09,11,10.10
2010,03,20,09,12,10.10
2010,03,20,09,13,10.20
2010,03,20,09,14,10.20
2010,03,20,09,15,10.30
2010,03,20,09,16,10.30
2010,03,20,09,17,10.40
2010,03,20,09,18,10.40
2010,03,20,09,19,10.50
2010,03,20,09,20,10.60
2010,03,20,09,21,10.60
2010,03,20,09,22,10.60
2010,03,20,09,23,10.60
2010,03,20,09,24,10.70
2010,03,20,09,25,10.70
2010,03,20,09,26,10.70
2010,03,20,09,27,10.70
2010,03,20,09,28,10.70
2010,03,20,09,29,10.70
2010,03,20,09,30,10.70
2010,03,20,09,31,10.60
2010,03,20,09,32,10.60
2010,03,20,09,33,10.60
2010,03,20,09,34,10.60
2010,03,20,09,35,10.60
2010,03,20,09,36,10.60
2010,03,20,09,37,10.70
2010,03,20,09,38,10.70
2010,03,20,09,39,10.70
2010,03,20,09,40,10.80
2010,03,20,09,41,10.80
2010,03,20,09,42,10.90
2010,03,20,09,43,11.00
2010,03,20,09,44,11.10
2010,03,20,09,45,11.10
2010,03,20,09,46,11.20
2010,03,20,09,47,11.30
2010,03,20,09,48,11.30
2010,03,20,09,49,11.30
2010,03,20,09,50,11.30
2010,03,20,09,51,11.20
2010,03,20,09,52,11.20
2010,03,20,09,53,11.20
2010,03,20,09,54,11.20
2010,03,20,09,55,11.20
2010,03,20,09,56,11.20
2010,03,20,09,57,11.20
2010,03,20,09,58,11.30
2010,03,20,09,59,11.30
2010,03,20,10,00,11.30
2010,03,20,10,01,11.30
2010,03,20,10,02,11.40
2010,03,20,10,03,11.40
2010,03,20,10,04,11.40
2010,03,20,10,05,11.50
2010,03,20,10,06,11.60
2010,03,20,10,07,11.60
2010,03,20,10,08,11.60
2010,03,20,10,09,11.60
2010,03,20,10,10,11.60
2010,03,20,10,11,11.60
2010,03,20,10,12,11.60
2010,03,20,10,13,11.60
2010,03,20,10,14,11.60
2010,03,20,10,15,11.60
2010,03,20,10,16,11.60
2010,03,20,10,17,11.60
2010,03,20,10,18,11.60
2010,03,20,10,19,11.60
2010,03,20,10,20,11.50
2010,03,20,10,21,11.40
2010,03,20,10,22,11.40
2010,03,20,10,23,11.40
2010,03,20,10,24,11.40
2010,03,20,10,25,11.60
2010,03,20,10,26,11.60
2010,03,20,10,27,11.60
2010,03,20,10,28,11.60
2010,03,20,10,29,11.60
2010,03,20,10,30,11.60
2010,03,20,10,31,11.70
2010,03,20,10,32,11.70
2010,03,20,10,33,11.60
2010,03,20,10,34,11.70
2010,03,20,10,35,11.70
2010,03,20,10,36,11.60
2010,03,20,10,37,11.60
2010,03,20,10,38,11.60
2010,03,20,10,39,11.70
2010,03,20,10,40,11.80
2010,03,20,10,41,11.80
2010,03,20,10,42,11.80
2010,03,20,10,43,11.90
2010,03,20,10,44,11.90
2010,03,20,10,45,12.00
2010,03,20,10,46,12.00
2010,03,20,10,47,12.00
2010,03,20,10,48,12.00
2010,03,20,10,49,12.10
2010,03,20,10,50,12.00
2010,03,20,10,51,12.00
2010,03,20,10,52,11.90
2010,03,20,10,53,11.90
2010,03,20,10,54,11.90
2010,03,20,10,55,11.90
2010,03,20,10,56,11.90
2010,03,20,10,57,12.00
2010,03,20,10,58,12.00
2010,03,20,10,59,11.90
2010,03,20,11,00,11.80
2010,03,20,11,01,11.80
2010,03,20,11,02,11.70
2010,03,20,11,03,11.70
2010,03,20,11,04,11.70
2010,03,20,11,05,11.80
2010,03,20,11,06,11.80
2010,03,20,11,07,11.80
2010,03,20,11,08,11.80
2010,03,20,11,09,11.80
2010,03,20,11,10,11.80
2010,03,20,11,11,11.80
2010,03,20,11,12,11.80
2010,03,20,11,13,11.80
2010,03,20,11,14,11.70
2010,03,20,11,15,11.60
2010,03,20,11,16,11.60
2010,03,20,11,17,11.60
2010,03,20,11,18,11.70
2010,03,20,11,19,11.70
2010,03,20,11,20,11.70
2010,03,20,11,21,11.70
2010,03,20,11,22,11.70
2010,03,20,11,23,11.80
2010,03,20,11,24,11.80
2010,03,20,11,25,11.70
2010,03,20,11,26,11.60
2010,03,20,11,27,11.60
2010,03,20,11,28,11.60
2010,03,20,11,29,11.60
2010,03,20,11,30,11.60
2010,03,20,11,31,11.60
2010,03,20,11,32,11.60
2010,03,20,11,33,11.60
2010,03,20,11,34,11.60
2010,03,20,11,35,11.60
2010,03,20,11,36,11.60
2010,03,20,11,37,11.50
2010,03,20,11,38,11.40
2010,03,20,11,39,11.40
2010,03,20,11,40,11.50
2010,03,20,11,41,11.60
2010,03,20,11,42,11.60
2010,03,20,11,43,11.60
2010,03,20,11,44,11.70
2010,03,20,11,45,11.70
2010,03,20,11,46,11.80
2010,03,20,11,47,11.80
2010,03,20,11,48,11.80
2010,03,20,11,49,11.90
2010,03,20,11,50,12.00
2010,03,20,11,51,12.10
2010,03,20,11,52,12.10
2010,03,20,11,53,12.10
2010,03,20,11,54,12.20
2010,03,20,11,55,12.20
2010,03,20,11,56,12.10
2010,03,20,11,57,12.00
2010,03,20,11,58,12.00
2010,03,20,11,59,12.00
2010,03,20,12,00,11.90
2010,03,20,12,01,11.80
2010,03,20,12,02,11.90
2010,03,20,12,03,12.00
2010,03,20,12,04,12.00
2010,03,20,12,05,12.00
2010,03,20,12,06,12.10
2010,03,20,12,07,12.20
2010,03,20,12,08,12.20
2010,03,20,12,09,12.10
2010,03,20,12,10,12.10
2010,03,20,12,11,12.10
2010,03,20,12,12,12.10
2010,03,20,12,13,12.10
2010,03,20,12,14,12.20
2010,03,20,12,15,12.20
2010,03,20,12,16,12.30
2010,03,20,12,17,12.30
2010,03,20,12,18,12.40
2010,03,20,12,19,12.40
2010,03,20,12,20,12.40
2010,03,20,12,21,12.30
2010,03,20,12,22,12.20
2010,03,20,12,23,12.20
2010,03,20,12,24,12.20
2010,03,20,12,25,12.30
2010,03,20,12,26,12.30
2010,03,20,12,27,12.40
2010,03,20,12,28,12.50
2010,03,20,12,29,12.60
2010,03,20,12,30,12.70
2010,03,20,12,31,12.90
2010,03,20,12,32,12.90
2010,03,20,12,33,12.80
2010,03,20,12,34,12.70
2010,03,20,12,35,12.70
2010,03,20,12,36,12.60
2010,03,20,12,37,12.60
2010,03,20,12,38,12.70
2010,03,20,12,39,12.80
2010,03,20,12,40,13.00
2010,03,20,12,41,13.00
2010,03,20,12,42,13.00
2010,03,20,12,43,13.00
2010,03,20,12,44,13.00
2010,03,20,12,45,13.00
2010,03,20,12,46,12.90
2010,03,20,12,47,12.80
2010,03,20,12,48,12.90
2010,03,20,12,49,12.90
2010,03,20,12,50,12.80
2010,03,20,12,51,12.80
2010,03,20,12,52,12.80
2010,03,20,12,53,12.90
2010,03,20,12,54,12.90
2010,03,20,12,55,12.90
2010,03,20,12,56,12.90
2010,03,20,12,57,12.90
2010,03,20,12,58,13.00
2010,03,20,12,59,13.10
2010,03,20,13,00,13.20
2010,03,20,13,01,13.10
2010,03,20,13,02,13.10
2010,03,20,13,03,13.00
2010,03,20,13,04,13.00
2010,03,20,13,05,13.00
2010,03,20,13,06,13.00
2010,03,20,13,07,13.10
2010,03,20,13,08,13.10
2010,03,20,13,09,13.20
2010,03,20,13,10,13.30
2010,03,20,13,11,13.30
2010,03,20,13,12,13.30
2010,03,20,13,13,13.30
2010,03,20,13,14,13.30
2010,03,20,13,15,13.30
2010,03,20,13,16,13.30
2010,03,20,13,17,13.20
2010,03,20,13,18,13.10
2010,03,20,13,19,12.80
2010,03,20,13,20,12.60
2010,03,20,13,21,12.50
2010,03,20,13,22,12.40
2010,03,20,13,23,12.20
2010,03,20,13,24,12.00
2010,03,20,13,25,12.00
2010,03,20,13,26,11.90
2010,03,20,13,27,11.80
2010,03,20,13,28,11.80
2010,03,20,13,29,11.70
2010,03,20,13,30,11.50
2010,03,20,13,31,11.40
2010,03,20,13,32,11.40
2010,03,20,13,33,11.40
2010,03,20,13,34,11.40
2010,03,20,13,35,11.50
2010,03,20,13,36,11.60
2010,03,20,13,37,11.60
2010,03,20,13,38,11.60
2010,03,20,13,39,11.70
2010,03,20,13,40,11.80
2010,03,20,13,41,11.90
2010,03,20,13,42,12.00
2010,03,20,13,43,12.10
2010,03,20,13,44,12.20
2010,03,20,13,45,12.30
2010,03,20,13,46,12.20
2010,03,20,13,47,12.10
2010,03,20,13,48,12.00
2010,03,20,13,49,11.90
2010,03,20,13,50,11.90
2010,03,20,13,51,11.90
2010,03,20,13,52,12.00
2010,03,20,13,53,12.00
2010,03,20,13,54,12.00
2010,03,20,13,55,11.90
2010,03,20,13,56,11.80
2010,03,20,13,57,11.80
2010,03,20,13,58,11.70
2010,03,20,13,59,11.70
2010,03,20,14,00,11.60
2010,03,20,14,01,11.40
2010,03,20,14,02,11.40
2010,03,20,14,03,11.50
2010,03,20,14,04,11.50
2010,03,20,14,05,11.40
2010,03,20,14,06,11.40
2010,03,20,14,07,11.60
2010,03,20,14,08,11.60
2010,03,20,14,09,11.50
2010,03,20,14,10,11.40
2010,03,20,14,11,11.20
2010,03,20,14,12,11.10
2010,03,20,14,13,11.00
2010,03,20,14,14,10.90
2010,03,20,14,15,10.90
2010,03,20,14,16,10.90
2010,03,20,14,17,10.90
2010,03,20,14,18,10.90
2010,03,20,14,19,10.90
2010,03,20,14,20,10.90
2010,03,20,14,21,10.80
2010,03,20,14,22,10.80
2010,03,20,14,23,10.80
2010,03,20,14,24,10.80
2010,03,20,14,25,10.80
2010,03,20,14,26,10.80
2010,03,20,14,27,10.70
2010,03,20,14,28,10.70
2010,03,20,14,29,10.70
2010,03,20,14,30,10.80
2010,03,20,14,31,10.70
2010,03,20,14,32,10.80
2010,03,20,14,33,10.80
2010,03,20,14,34,10.70
2010,03,20,14,35,10.70
2010,03,20,14,36,10.60
2010,03,20,14,37,10.60
2010,03,20,14,38,10.60
2010,03,20,14,39,10.60
2010,03,20,14,40,10.50
2010,03,20,14,41,10.40
2010,03,20,14,42,10.30
2010,03,20,14,43,10.20
2010,03,20,14,44,10.20
2010,03,20,14,45,10.10
2010,03,20,14,46,10.00
2010,03,20,14,47,9.90
2010,03,20,14,48,9.90
2010,03,20,14,49,9.80
2010,03,20,14,50,9.80
2010,03,20,14,51,9.70
2010,03,20,14,52,9.70
2010,03,20,14,53,9.60
2010,03,20,14,54,9.60
2010,03,20,14,55,9.60
2010,03,20,14,56,9.60
2010,03,20,14,57,9.70
2010,03,20,14,58,9.70
2010,03,20,14,59,9.70
2010,03,20,15,00,9.70
2010,03,20,15,01,9.70
2010,03,20,15,02,9.80
2010,03,20,15,03,9.80
2010,03,20,15,04,9.80
2010,03,20,15,05,9.70
2010,03,20,15,06,9.70
2010,03,20,15,07,9.80
2010,03,20,15,08,9.90
2010,03,20,15,09,10.00
2010,03,20,15,10,10.10
2010,03,20,15,11,10.20
2010,03,20,15,12,10.20
2010,03,20,15,13,10.10
2010,03,20,15,14,9.90
2010,03,20,15,15,9.70
2010,03,20,15,16,9.70
2010,03,20,15,17,9.70
2010,03,20,15,18,9.80
2010,03,20,15,19,9.80
2010,03,20,15,20,9.80
2010,03,20,15,21,9.70
2010,03,20,15,22,9.80
2010,03,20,15,23,9.80
2010,03,20,15,24,9.80
2010,03,20,15,25,9.70
2010,03,20,15,26,9.70
2010,03,20,15,27,9.70
2010,03,20,15,28,9.70
2010,03,20,15,29,9.70
2010,03,20,15,30,9.80
2010,03,20,15,31,9.90
2010,03,20,15,32,9.90
2010,03,20,15,33,9.90
2010,03,20,15,34,9.90
2010,03,20,15,35,9.90
2010,03,20,15,36,9.90
2010,03,20,15,37,9.80
2010,03,20,15,38,9.80
2010,03,20,15,39,9.90
2010,03,20,15,40,9.80
2010,03,20,15,41,9.80
2010,03,20,15,42,9.80
2010,03,20,15,43,9.90
2010,03,20,15,44,9.90
2010,03,20,15,45,9.90
2010,03,20,15,46,9.80
2010,03,20,15,47,9.80
2010,03,20,15,48,9.90
2010,03,20,15,49,9.90
2010,03,20,15,50,9.90
2010,03,20,15,51,10.00
2010,03,20,15,52,10.10
2010,03,20,15,53,10.10
2010,03,20,15,54,10.20
2010,03,20,15,55,10.20
2010,03,20,15,56,10.20
2010,03,20,15,57,10.10
2010,03,20,15,58,10.10
2010,03,20,15,59,10.00
2010,03,20,16,00,9.90
2010,03,20,16,01,9.70
2010,03,20,16,02,9.70
2010,03,20,16,03,9.70
2010,03,20,16,04,9.60
2010,03,20,16,05,9.60
2010,03,20,16,06,9.60
2010,03,20,16,07,9.60
2010,03,20,16,08,9.60
2010,03,20,16,09,9.70
2010,03,20,16,10,9.70
2010,03,20,16,11,9.80
2010,03,20,16,12,9.80
2010,03,20,16,13,9.90
2010,03,20,16,14,9.90
2010,03,20,16,15,9.90
2010,03,20,16,16,9.90
2010,03,20,16,17,9.90
2010,03,20,16,18,10.00
2010,03,20,16,19,10.10
2010,03,20,16,20,10.00
2010,03,20,16,21,9.90
2010,03,20,16,22,9.90
2010,03,20,16,23,9.90
2010,03,20,16,24,9.90
2010,03,20,16,25,9.90
2010,03,20,16,26,9.90
2010,03,20,16,27,9.90
2010,03,20,16,28,9.90
2010,03,20,16,29,9.90
2010,03,20,16,30,9.90
2010,03,20,16,31,9.90
2010,03,20,16,32,9.90
2010,03,20,16,33,9.90
2010,03,20,16,34,10.00
2010,03,20,16,35,10.10
2010,03,20,16,36,10.10
2010,03,20,16,37,10.10
2010,03,20,16,38,10.10
2010,03,20,16,39,10.10
2010,03,20,16,40,10.10
2010,03,20,16,41,10.10
2010,03,20,16,42,10.00
2010,03,20,16,43,9.90
2010,03,20,16,44,9.90
2010,03,20,16,45,9.90
2010,03,20,16,46,9.90
2010,03,20,16,47,9.90
2010,03,20,16,48,9.90
2010,03,20,16,49,9.90
2010,03,20,16,50,9.90
2010,03,20,16,51,9.90
2010,03,20,16,52,9.90
2010,03,20,16,53,9.90
2010,03,20,16,54,9.90
2010,03,20,16,55,9.90
2010,03,20,16,56,9.90
2010,03,20,16,57,9.90
2010,03,20,16,58,9.90
2010,03,20,16,59,9.90
2010,03,20,17,00,9.90
2010,03,20,17,01,9.90
2010,03,20,17,02,9.90
2010,03,20,17,03,9.90
2010,03,20,17,04,9.90
2010,03,20,17,05,9.90
2010,03,20,17,06,9.90
2010,03,20,17,07,9.80
2010,03,20,17,08,9.80
2010,03,20,17,09,9.80
2010,03,20,17,10,9.80
2010,03,20,17,11,9.80
2010,03,20,17,12,9.80
2010,03,20,17,13,9.80
2010,03,20,17,14,9.80
2010,03,20,17,15,9.80
2010,03,20,17,16,9.70
2010,03,20,17,17,9.80
2010,03,20,17,18,9.80
2010,03,20,17,19,9.80
2010,03,20,17,20,9.80
2010,03,20,17,21,9.80
2010,03,20,17,22,9.90
2010,03,20,17,23,9.90
2010,03,20,17,24,9.90
2010,03,20,17,25,9.90
2010,03,20,17,26,9.90
2010,03,20,17,27,10.00
2010,03,20,17,28,10.10
2010,03,20,17,29,10.10
2010,03,20,17,30,10.10
2010,03,20,17,31,10.10
2010,03,20,17,32,10.10
2010,03,20,17,33,10.10
2010,03,20,17,34,10.10
2010,03,20,17,35,10.10
2010,03,20,17,36,10.10
2010,03,20,17,37,10.10
2010,03,20,17,38,10.10
2010,03,20,17,39,10.10
2010,03,20,17,40,10.20
2010,03,20,17,41,10.20
2010,03,20,17,42,10.30
2010,03,20,17,43,10.30
2010,03,20,17,44,10.40
2010,03,20,17,45,10.40
2010,03,20,17,46,10.40
2010,03,20,17,47,10.40
2010,03,20,17,48,10.40
2010,03,20,17,49,10.40